Regional Weather Roundup
Issued by NWS

Home | Current Version | Previous Version | Graphics & Text | Print | Product List | Glossary On
Versions: 1 2 3 4 5 6 7 8 9 10 11 12 13 14 15 16 17 18 19 20 21 22 23 24 25 26 27 28 29 30 31 32 33 34 35 36 37 38 39 40 41 42 43 44 45 46 47 48 49 50
740
ASUS45 KTFX 301810
RWRMT
MONTANA REGIONAL WEATHER ROUNDUP
NATIONAL WEATHER SERVICE GREAT FALLS MT
1200 PM MDT FRI SEP 30 2016

NOTE: "FAIR" INDICATES FEW OR NO CLOUDS BELOW 12000 FEET WITH NO
SIGNIFICANT WEATHER AND/OR OBSTRUCTIONS TO VISIBILITY.

MTZ001>007-043-301900-
WEST OF THE DIVIDE

CITY           SKY/WX    TMP DP  RH WIND       PRES   REMARKS
KALISPELL      SUNNY     64  51  62 CALM      30.01F
MISSOULA       SUNNY     69  46  43 SE6       30.03F
BUTTE          SUNNY     66  44  45 N3        30.17F
MULLAN PASS    SUNNY     60  43  53 VRB5      30.10F
ANACONDA         N/A     72  39  30 SE14G23   30.12F
DEER LODGE       N/A     72  45  37 SE7       30.12F
EUREKA           N/A     63  54  72 CALM      30.01F
HAMILTON         N/A     75  43  31 S9        30.03F
LIBBY            N/A     61  55  82 W5        30.01F
PLAINS           N/A     69  48  46 CALM      30.01F
$$

MTZ008-052>055-301900-
SOUTHWEST MONTANA

CITY           SKY/WX    TMP DP  RH WIND       PRES   REMARKS
BOZEMAN        SUNNY     68  48  48 NE3       30.14F
DILLON         SUNNY     67  45  45 SW7       30.16F
W YELLOWSTONE  SUNNY     59  45  58 S3        30.29F
ENNIS          SUNNY     72  41  33 S10       30.22S
THREE FORKS      N/A     67  65  93 CALM      30.11F
TWIN BRIDGES     N/A     66  45  46 N3        30.13F
$$

MTZ009-010-012-014-046-048-049-054-301900-
EAST SLOPES AND CENTRAL MONTANA

CITY           SKY/WX    TMP DP  RH WIND       PRES   REMARKS
CUT BANK       PTSUNNY   64  48  56 VRB3      30.04F
GREAT FALLS    MOSUNNY   67  49  52 CALM      30.03F
MALMSTROM AFB  CLOUDY    68  50  52 NW5       30.03F
HELENA         SUNNY     67  47  48 NW3       30.08F
AUGUSTA        MOCLDY    68  46  45 S2        30.07S
BOWMANS CRNR     N/A     68  44  41 S18       30.05F
CHOTEAU          N/A     64  50  59 NE3       30.08R
CONRAD           N/A     64  56  75 N3        30.06F
FAIRFIELD      MOCLDY    68  47  47 NW6       30.05R
POWER            N/A     67  46  46 NE2       30.04S
RAYNESFORD       N/A     75  40  28 W16       30.05F
$$

MTZ011-013-016-021-045-047-050-051-301900-
NORTH CENTRAL MONTANA

CITY           SKY/WX    TMP DP  RH WIND       PRES   REMARKS
HAVRE          SUNNY     67  53  61 NW6       30.02S
LEWISTOWN      SUNNY     73  47  39 W8        30.06S
N BAR RANCH      N/A     75  45  33 NW6       30.08F
CHINOOK          N/A     70  55  60 W10       30.00S
DENTON           N/A     70  51  51 NE3       30.01F
GEYSER         MOCLDY    68  46  45 S2        30.07S
GRASS RANGE      N/A     75  47  37 W7        30.00F
JUDITH GAP       N/A     73  45  36 N5G14     30.08S
ROY              N/A     74  51  43 MISG      30.01S
STANFORD         N/A     74  46  37 N9        30.06F
WINIFRED         N/A     69  51  54 MISG      30.04S
$$

MTZ017>020-022>027-061-062-301900-
NORTHEAST MONTANA

CITY           SKY/WX    TMP DP  RH WIND       PRES   REMARKS
GLASGOW        SUNNY     71  48  43 VRB3      29.96S
JORDAN           N/A     75  53  46 NW7       29.96F
SIDNEY         CLOUDY    62  53  72 S5        30.00S
WOLF POINT     PTSUNNY   68  50  52 CALM      29.96F
PLENTYWOOD       N/A     66  50  55 SE14      29.99F
POPLAR           N/A     70  50  49 SE5       29.97S
SCOBEY           N/A     72  48  42 SE5       29.97F
$$

MTZ028>42-056>058-301900-
SOUTHCENTRAL AND SOUTHEAST MONTANA

CITY           SKY/WX    TMP DP  RH WIND       PRES   REMARKS
BAKER          CLOUDY    68  49  50 SE14      30.03F
BILLINGS       MOSUNNY   74  50  42 SW14      30.05F
LIVINGSTON     SUNNY     74  44  34 SW16      30.12F
MILES CITY     SUNNY     77  52  41 W7        29.98F
BIG TIMBER     SUNNY     73  43  33 W24       30.11F
EKALAKA          N/A     72  48  42 SW2       30.03S
FORSYTH          N/A     75  48  38 W14       29.98F
HARLOWTON        N/A     74  42  32 W24G33    30.07F
LAUREL           N/A     75  46  35 SW7       30.04F
ROUNDUP          N/A     75  47  37 S5        29.95S
$$

REGIONAL REPORTS...DAKOTAS

CITY           SKY/WX    TMP DP  RH WIND       PRES   REMARKS
WILLISTON      CLOUDY    63  49  60 S12G21    30.01F
MINOT          PTSUNNY   63  48  58 SE9       30.09S
DICKINSON      CLOUDY    61  45  55 S14       30.04F
BEACH            N/A     64  48  55 S12       30.05F
CROSBY         PTSUNNY   64  52  63 SE14      30.04F
WATFORD CITY   PTSUNNY   55  50  82 E6        30.04S
BISMARCK       PTSUNNY   66  48  52 SE18      30.12F
GRAND FORKS    PTSUNNY   67  51  56 S13G23    30.26F
FARGO          SUNNY     68  51  54 SE14      30.28F
BUFFALO SD       N/A     66  45  46 SE13      29.98F
RAPID CITY     PTSUNNY   66  47  50 SE14      30.07F
$$

REGIONAL REPORTS...WYOMING/IDAHO/WASHINGTON

CITY           SKY/WX    TMP DP  RH WIND       PRES   REMARKS
GILLETTE       SUNNY     75  48  38 N5        30.08S
SHERIDAN       SUNNY     77  49  37 CALM      30.07F
BUFFALO WY     SUNNY     72  45  37 S5        30.13F
CODY           SUNNY     72  43  35 W9        30.15F
YELLOWSTONE LA   N/A     52  45  77 VRB3      30.37F
IDAHO FALLS    MOSUNNY   67  48  50 CALM      30.21F
SALMON         SUNNY     64  46  52 NW3       30.13F
BOISE          SUNNY     81  42  25 SE15      30.04F
SPOKANE        PTSUNNY   66  44  45 CALM      29.98F
$$

REGIONAL REPORTS...ALBERTA

CITY           SKY/WX    TMP DP  RH WIND       PRES   REMARKS
EDMONTON       CLOUDY    50  46  87 NE10      30.04F
CALGARY        CLOUDY    52  46  82 N6        29.99F
LETHBRIDGE     MOSUNNY   70  52  52 W12       29.98F
MEDICINE HAT   PTSUNNY   61  52  72 VRB2      29.99F
MILK RIVER       N/A     63  52  67 SE6         N/A
$$

REGIONAL REPORTS...SASKATCHEWAN

CITY           SKY/WX    TMP DP  RH WIND       PRES   REMARKS
SWIFT CURRENT  SUNNY     66  52  59 W8        29.97S
REGINA         MOSUNNY   66  48  52 SE13G20   30.00S
SASKATOON      MOSUNNY   63  48  59 VRB6      29.99F
CYPRESS HILLS    N/A     66  48  52 NW5         N/A
VAL MARIE        N/A     66  48  52 S6          N/A
ROCKGLEN         N/A     72  50  46 S5          N/A
$$




USA.gov is the U.S. government's official web portal to all federal, state and local government web resources and services.